Weather History for KWJF - November, 2011

Change the Weather History Date:

Monday, November 14, 2011

  Actual Average Record
Temperature  
Mean Temperature 52 °F 52 °F  
Max Temperature 68 °F 68 °F 82 °F (1962)
Min Temperature 36 °F 36 °F 22 °F (2012)
Degree Days  
Heating Degree Days 13    
Month to date heating degree days 224  
Since 1 July heating degree days 344  
Cooling Degree Days 0    
Month to date cooling degree days 3  
Year to date cooling degree days 1754  
Growing Degree Days 2 (Base 50)    
Moisture  
Dew Point 38 °F    
Average Humidity 59    
Maximum Humidity 92    
Minimum Humidity 26    
Precipitation  
Precipitation 0.00 in 0.02 in 0.32 in (1952)
Month to date precipitation 0.26 0.23  
Year to date precipitation 4.33 5.92  
Since 1 July precipitation 0.68 1.01  
Snow  
Snow 0.00 in - 0.00 in ()
Month to date snowfall 0.0  
Since 1 July snowfall 0.0  
Since 1 September snowfall 0.0  
Snow Depth 0.00 in    
Sea Level Pressure  
Sea Level Pressure 29.95 in    
Wind  
Wind Speed 12 mph (West)    
Max Wind Speed 33 mph    
Max Gust Speed 38 mph    
Visibility 10 miles    
Events      
T = Trace of Precipitation, MM = Missing Value Source: NWS Daily Summary

Daily Weather History Graph

Daily Weather History Graph

Search for Another Location

Airport or City:

Trip Planner

Search our weather history database for the weather conditions in past years. The results will help you decide how hot, cold, wet, or windy it might be!

Date:

Astronomy

Nov. 14, 2011 Rise Set
Actual Time 6:25 AM PST 4:48 PM PST
Civil Twilight 5:58 AM PST 5:15 PM PST
Nautical Twilight 5:28 AM PST 5:45 PM PST
Astronomical Twilight 4:58 AM PST 6:15 PM PST
Moon 8:02 PM PST (11/14) 9:44 AM PST (11/14)
Length of Visible Light 11h 16m
Length of Day
10h 22m
Waning Gibbous, 86% of the Moon is Illuminated
Nov 14
Waning Gibbous
Nov 18
Last Quarter
Nov 24
New
Dec 2
First Quarter
Dec 10
Full

Hourly Weather History & Observations

Time (PST) Temp. Windchill Dew Point Humidity Pressure Visibility Wind Dir Wind Speed Gust Speed Precip Events Conditions
12:56 AM 39.9 °F 37.8 °F 35.1 °F 83% 29.99 in 10.0 mi Variable 3.5 mph - N/A   Clear
1:56 AM 39.9 °F - 37.0 °F 89% 29.96 in 10.0 mi Calm Calm - N/A   Clear
2:56 AM 37.0 °F 34.5 °F 33.1 °F 86% 29.95 in 10.0 mi NW 3.5 mph - N/A   Clear
3:56 AM 46.0 °F 43.9 °F 37.9 °F 73% 29.93 in 10.0 mi West 4.6 mph - N/A   Clear
4:56 AM 51.1 °F - 39.9 °F 66% 29.93 in 10.0 mi WSW 17.3 mph - N/A   Clear
5:56 AM 52.0 °F - 39.9 °F 63% 29.94 in 10.0 mi WSW 19.6 mph - N/A   Clear
6:56 AM 51.1 °F - 39.9 °F 66% 29.95 in 10.0 mi WSW 19.6 mph - N/A   Clear
7:56 AM 55.9 °F - 37.9 °F 51% 29.95 in 10.0 mi West 20.7 mph - N/A   Clear
8:56 AM 60.1 °F - 37.0 °F 42% 29.94 in 10.0 mi West 26.5 mph 32.2 mph N/A   Clear
9:56 AM 64.0 °F - 34.0 °F 33% 29.94 in 10.0 mi West 21.9 mph 34.5 mph N/A   Clear
10:56 AM 66.0 °F - 34.0 °F 30% 29.92 in 10.0 mi WSW 25.3 mph 32.2 mph N/A   Clear
11:56 AM 66.9 °F - 34.0 °F 30% 29.90 in 10.0 mi West 17.3 mph 25.3 mph N/A   Clear
12:56 PM 66.9 °F - 36.0 °F 32% 29.88 in 10.0 mi WSW 19.6 mph 27.6 mph N/A   Clear
1:56 PM 66.9 °F - 30.0 °F 25% 29.87 in 10.0 mi West 27.6 mph 31.1 mph N/A   Clear
2:56 PM 66.0 °F - 32.0 °F 28% 29.89 in 10.0 mi West 20.7 mph 28.8 mph N/A   Clear
3:56 PM 63.0 °F - 44.1 °F 50% 29.90 in 10.0 mi WSW 13.8 mph - N/A   Clear
4:56 PM 57.9 °F - 45.0 °F 62% 29.91 in 10.0 mi WSW 9.2 mph - N/A   Clear
5:56 PM 54.0 °F - 45.0 °F 72% 29.94 in 10.0 mi West 10.4 mph - N/A   Clear
6:56 PM 53.1 °F - 41.0 °F 64% 29.96 in 10.0 mi West 12.7 mph - N/A   Clear
7:56 PM 51.1 °F - 41.0 °F 68% 29.99 in 10.0 mi Calm Calm - N/A   Clear
8:56 PM 46.9 °F - 39.9 °F 77% 30.01 in 10.0 mi Calm Calm - N/A   Clear
9:56 PM 46.9 °F - 39.9 °F 77% 30.01 in 10.0 mi Calm Calm - N/A   Clear
10:56 PM 44.1 °F - 37.0 °F 76% 30.02 in 10.0 mi Calm Calm - N/A   Clear
11:56 PM 39.9 °F - 35.1 °F 83% 30.03 in 10.0 mi Calm Calm - N/A   Clear